[[{"header":{"parameterUnit":"m.s-1","parameterCategory":1,"la1":30.2991,"la2":30.254,"lo1":-89.0895,"lo2":-89.0444,"dy":0.0017,"dx":0.0017,"nx":28,"ny":28,"refTime":"2025-08-17T21:00:00:Z","depth":0,"parameterNumber":2,"parameterNumberName":"U-component_of_WINDS"},"data":[0,0,0,0,0,0,0,0,0,0,0,0,0,0,0,0,0,0,0,0,0,0,0,0,0,0,0,0,0,0,0,0,0,0,0,0,0,0,0,0,0,0,0,0,0,0,0,0,0,0,0,0,0,0,0,0,0,0,1.5999,1.6,0,1.6122,1.6123,1.6124,1.6147,1.6146,1.6145,1.6144,1.6268,1.6272,1.6276,0,0,0,0,0,0,0,0,0,0,0,0,0,1.5781,1.5785,1.5999,1.6001,1.6002,1.6121,1.6123,1.6125,1.6147,1.6146,1.6145,1.6143,1.6266,1.6271,1.6276,0,0,0,0,0,0,0,0,0,0,0,0,0,1.5887,1.5787,1.5999,1.6028,1.6031,1.6121,1.6123,1.6125,1.6147,1.6146,1.6144,1.6143,1.6264,1.6271,1.6277,1.6346,0,0,1.6296,1.6299,0,0,0,0,0,0,0,0,1.5881,1.5895,1.6022,1.6026,1.603,1.6117,1.6092,1.6199,1.6148,1.6103,1.6144,1.6142,1.6219,1.6229,1.6255,1.6352,1.6357,1.6297,1.6301,1.6303,1.6305,0,0,0,0,0,0,0,1.5874,1.589,1.6047,1.6024,1.6029,1.6034,1.6047,1.6112,1.6168,1.6107,1.6109,1.6123,1.6221,1.6249,1.6258,1.6359,1.6297,1.6302,1.6306,1.6309,1.6517,1.6519,0,0,0,0,0,0,1.5862,1.5884,1.6044,1.6051,1.595,1.6039,1.6054,1.6091,1.6167,1.6177,1.6124,1.6124,1.6239,1.6251,1.6262,1.6347,1.6303,1.6309,1.6313,1.6515,1.6517,1.6519,0,0,0,0,0,0,1.5857,1.5876,1.6039,1.5968,1.5989,1.6044,1.6086,1.6094,1.6122,1.618,1.619,1.6143,1.6238,1.6253,1.6325,1.6352,1.6312,1.6318,1.6513,1.6516,1.6518,1.6518,0,0,0,0,0,0,1.5851,1.5874,1.5901,1.5969,1.5993,1.61,1.6087,1.6098,1.6133,1.6134,1.62,1.621,1.6238,1.6315,1.6331,1.636,1.6323,1.6511,1.6514,1.6518,1.6515,1.652,1.6524,0,0,0,0,0,1.5843,1.5896,1.5903,1.5922,1.6028,1.6101,1.6115,1.6147,1.6135,1.6163,1.62,1.6208,1.6347,1.6322,1.634,1.6371,1.6509,1.6513,1.6517,1.6514,1.6519,1.6523,0,0,0,0,0,0,1.583,1.5905,1.5913,1.599,1.6039,1.6105,1.614,1.6152,1.6204,1.6202,1.6239,1.6254,1.6323,1.6355,1.6326,1.6441,1.6427,1.6435,1.6418,1.6424,1.6428,1.6418,1.6328,0,0,0,0,0,1.5836,1.589,1.5953,1.6014,1.6038,1.6085,1.6118,1.6138,1.619,1.6211,1.6253,1.6303,1.6357,1.6393,1.6446,1.6521,1.6535,1.6551,1.6555,1.6558,1.6563,1.6604,1.6611,1.6532,1.6532,1.6532,0,0,1.5849,1.5897,1.5929,1.6013,1.6053,1.6107,1.6102,1.616,1.6199,1.6219,1.6289,1.6322,1.6379,1.6452,1.6486,1.6481,1.6589,1.6563,1.6565,1.6569,1.6609,1.6616,1.6623,1.6535,1.6534,1.6534,0,0,1.59,1.5943,1.5998,1.6039,1.61,1.6131,1.6144,1.6208,1.623,1.6301,1.6317,1.6365,1.6458,1.6498,1.6531,1.6597,1.6605,1.6613,1.6634,1.6673,1.6679,1.6685,1.6707,1.6714,1.6619,1.6619,1.6619,0,1.5909,1.5991,1.6025,1.6081,1.6117,1.6138,1.6194,1.6232,1.6307,1.6331,1.6324,1.6441,1.6481,1.6563,1.6579,1.6605,1.662,1.6605,1.6675,1.6681,1.6687,1.6709,1.6717,1.6619,1.6619,1.6619,1.6619,0,1.5997,1.6054,1.6091,1.6164,1.6204,1.626,1.6301,1.6338,1.6355,1.6386,1.6457,1.6506,1.6569,1.659,1.6607,1.6674,1.6669,1.6668,1.6654,1.6695,1.6715,1.6724,1.662,1.662,1.662,1.662,0,0,1.6043,1.6134,1.6147,1.6179,1.6248,1.6292,1.6348,1.6411,1.6441,1.6492,1.6539,1.6618,1.6618,1.6655,1.6676,1.671,1.6757,1.6706,1.6707,1.6712,1.6833,1.6832,1.6841,1.6764,1.6766,1.6767,1.6827,0,1.6101,1.6203,1.6235,1.6319,1.6371,1.6392,1.6441,1.6488,1.6518,1.6566,1.66,1.6654,1.6651,1.6673,1.6708,1.6744,1.6782,1.6741,1.6807,1.6809,1.6791,1.6852,1.6851,1.6905,1.6836,1.6837,1.6838,0,1.6183,1.6235,1.6325,1.6386,1.6409,1.6453,1.6512,1.6558,1.6611,1.6631,1.6672,1.6691,1.6749,1.6733,1.6813,1.6784,1.6814,1.6836,1.6838,1.6845,1.6825,1.6858,1.6924,1.6931,1.6852,1.6851,1.685,0,1.6205,1.6298,1.6364,1.6391,1.6465,1.6495,1.6527,1.6579,1.6614,1.6666,1.6689,1.6746,1.6778,1.6821,1.6855,1.684,1.6932,1.6918,1.6949,1.6948,1.6966,1.6964,1.7035,1.6987,1.6987,1.6987,1.6987,0,1.6265,1.6319,1.6375,1.6415,1.6475,1.6511,1.6569,1.6603,1.6649,1.6695,1.6716,1.6759,1.6801,1.6849,1.6876,1.6937,1.6952,1.6968,1.6974,1.6966,1.6963,1.6984,1.6981,1.6989,1.6988,1.6988,1.6988,0,1.63,1.634,1.6412,1.6476,1.6494,1.6535,1.6589,1.6628,1.666,1.6718,1.6734,1.6783,1.684,1.6878,1.6952,1.697,1.7036,1.7042,1.7018,1.7021,1.7048,1.7045,1.7135,1.7148,1.7092,1.7092,1.7093,0,1.6335,1.6377,1.6446,1.6478,1.6511,1.6563,1.6599,1.6636,1.6672,1.6736,1.6767,1.6826,1.6875,1.6966,1.7008,1.7064,1.7071,1.7098,1.7079,1.7069,1.7069,1.7066,1.707,1.7101,1.7101,1.7102,1.7102,0,1.6393,1.6411,1.6462,1.6521,1.6563,1.661,1.6658,1.6683,1.6728,1.6768,1.6827,1.6865,1.694,1.6998,1.7058,1.709,1.7103,1.7108,1.7118,1.7108,1.7092,1.71,1.7025,1.7105,1.7105,1.7105,1.7104,1.7104,1.6429,1.6466,1.652,1.6576,1.6616,1.666,1.6699,1.6736,1.6786,1.685,1.6869,1.693,1.6982,1.7064,1.7097,1.7145,1.7142,1.7156,1.716,1.7162,1.7162,1.7085,1.7156,1.7156,1.7156,1.7156,1.7156,0,1.6487,1.6522,1.6574,1.664,1.6683,1.6693,1.6746,1.6782,1.6835,1.6883,1.6931,1.6998,1.7054,1.7101,1.7159,1.7188,1.7195,1.7202,1.7199,1.7206,1.7162,1.7147,1.7195,1.7195,1.7195,1.7195,1.7195,1.7195,1.6522,1.6585,1.6609,1.6692,1.6728,1.6788,1.6817,1.6857,1.6895,1.697,1.7017,1.7047,1.7094,1.7155,1.7206,1.7219,1.7238,1.7243,1.7256,1.7214,1.7209,1.7205,1.7191,1.7247,1.7248,1.7296,1.7297,1.7297]},{"header":{"parameterUnit":"m.s-1","parameterCategory":1,"la1":30.2991,"la2":30.254,"lo1":-89.0895,"lo2":-89.0444,"dy":0.0017,"dx":0.0017,"nx":28,"ny":28,"refTime":"2025-08-17T21:00:00:Z","depth":0,"parameterNumber":3,"parameterNumberName":"V-component_of_WINDS"},"data":[0,0,0,0,0,0,0,0,0,0,0,0,0,0,0,0,0,0,0,0,0,0,0,0,0,0,0,0,0,0,0,0,0,0,0,0,0,0,0,0,0,0,0,0,0,0,0,0,0,0,0,0,0,0,0,0,0,0,1.9407,1.9407,0,1.9392,1.9392,1.9392,1.9364,1.9363,1.9363,1.9362,1.9348,1.9348,1.9348,0,0,0,0,0,0,0,0,0,0,0,0,0,1.941,1.941,1.9407,1.9407,1.9406,1.9392,1.9392,1.9392,1.9364,1.9363,1.9363,1.9362,1.9348,1.9348,1.9348,0,0,0,0,0,0,0,0,0,0,0,0,0,1.9403,1.941,1.9407,1.9391,1.9389,1.9393,1.9392,1.9392,1.9364,1.9363,1.9362,1.9362,1.9348,1.9348,1.9348,1.9366,0,0,1.9349,1.9349,0,0,0,0,0,0,0,0,1.9404,1.9403,1.9393,1.9392,1.939,1.9379,1.9388,1.9383,1.9364,1.9374,1.9362,1.9361,1.9359,1.9358,1.9357,1.9365,1.9365,1.9349,1.9349,1.9349,1.9349,0,0,0,0,0,0,0,1.9404,1.9403,1.9401,1.9393,1.9391,1.9384,1.9382,1.9387,1.9371,1.9373,1.9371,1.9369,1.9358,1.9357,1.9357,1.9364,1.9349,1.9349,1.9349,1.9349,1.9386,1.9387,0,0,0,0,0,0,1.9407,1.9404,1.9402,1.9401,1.9395,1.9385,1.9383,1.9383,1.9371,1.9368,1.937,1.9368,1.9357,1.9356,1.9356,1.9375,1.9349,1.9349,1.9349,1.9385,1.9386,1.9387,0,0,0,0,0,0,1.9407,1.9407,1.9402,1.9402,1.9401,1.9386,1.9387,1.9384,1.9383,1.9369,1.9366,1.9372,1.9356,1.9356,1.9364,1.9375,1.9349,1.9349,1.9384,1.9385,1.9386,1.9415,0,0,0,0,0,0,1.9407,1.9407,1.9414,1.9402,1.9401,1.941,1.9387,1.9384,1.9383,1.938,1.937,1.9368,1.9356,1.9363,1.9364,1.9374,1.9349,1.9383,1.9384,1.9386,1.9413,1.9417,1.9421,0,0,0,0,0,1.9407,1.9423,1.9414,1.9414,1.9409,1.9411,1.941,1.9396,1.9384,1.9391,1.9382,1.9368,1.9374,1.9364,1.9365,1.9375,1.9382,1.9384,1.9386,1.9411,1.9416,1.942,0,0,0,0,0,0,1.9436,1.9421,1.9411,1.9423,1.9418,1.9406,1.9414,1.9402,1.94,1.9398,1.938,1.9378,1.9388,1.9383,1.9373,1.9392,1.9376,1.9378,1.9395,1.9399,1.9403,1.9404,1.935,0,0,0,0,0,1.9444,1.9446,1.9433,1.9445,1.9443,1.9429,1.9429,1.9419,1.9413,1.9411,1.9402,1.9397,1.9398,1.9398,1.9398,1.9412,1.9409,1.942,1.9424,1.9427,1.9429,1.9435,1.9439,1.9393,1.9393,1.9393,0,0,1.946,1.9452,1.9454,1.945,1.9445,1.9448,1.9427,1.9432,1.9433,1.9411,1.9418,1.9412,1.9405,1.9416,1.942,1.9411,1.9441,1.9429,1.9432,1.9432,1.9437,1.9442,1.9445,1.9394,1.9394,1.9394,0,0,1.949,1.9485,1.9493,1.9489,1.9481,1.9472,1.9474,1.9463,1.9458,1.9465,1.9448,1.945,1.9452,1.9447,1.9445,1.9474,1.9461,1.9474,1.9494,1.95,1.9504,1.9507,1.9516,1.952,1.9476,1.9476,1.9476,0,1.951,1.9514,1.9499,1.9504,1.9503,1.9483,1.9492,1.9488,1.9481,1.9481,1.9471,1.9472,1.9466,1.9475,1.9482,1.9482,1.9483,1.9475,1.9504,1.9507,1.951,1.9518,1.9522,1.9478,1.9478,1.9477,1.9477,0,1.954,1.9543,1.9551,1.9544,1.9543,1.955,1.9536,1.9538,1.9527,1.9519,1.9525,1.9518,1.9515,1.9517,1.9507,1.9524,1.9519,1.9507,1.949,1.9516,1.9524,1.9527,1.948,1.9479,1.9479,1.9479,0,0,1.9587,1.9572,1.9575,1.9571,1.9562,1.9564,1.957,1.9567,1.9568,1.9565,1.9569,1.957,1.9559,1.9557,1.9546,1.9552,1.9574,1.9539,1.9539,1.9545,1.9592,1.96,1.9604,1.9566,1.9566,1.9567,1.9592,0,1.9614,1.9623,1.961,1.9622,1.9624,1.9605,1.961,1.9605,1.9597,1.9598,1.9589,1.959,1.9576,1.9575,1.9579,1.957,1.9583,1.9569,1.9569,1.9569,1.957,1.9608,1.9617,1.9641,1.9595,1.9595,1.9596,0,1.9647,1.9644,1.9656,1.9645,1.9646,1.9651,1.9647,1.9648,1.9642,1.9635,1.9633,1.9621,1.9625,1.961,1.9616,1.9606,1.9606,1.9601,1.9602,1.9601,1.9583,1.9607,1.9648,1.9651,1.9601,1.96,1.96,0,1.9679,1.9678,1.9685,1.9683,1.9671,1.9674,1.967,1.9662,1.9662,1.9659,1.9658,1.9655,1.9654,1.9652,1.964,1.963,1.9647,1.963,1.9641,1.9642,1.9645,1.9645,1.9686,1.9646,1.9646,1.9646,1.9646,0,1.971,1.9718,1.9699,1.9703,1.9711,1.9696,1.9705,1.9698,1.9692,1.9694,1.9678,1.9681,1.9664,1.9665,1.9655,1.9661,1.9661,1.9656,1.9653,1.9657,1.9657,1.9655,1.9653,1.9647,1.9647,1.9647,1.9647,0,1.9746,1.9734,1.974,1.9729,1.9726,1.9732,1.9722,1.9725,1.9717,1.972,1.972,1.9706,1.9706,1.9694,1.9691,1.9684,1.9694,1.9689,1.9696,1.9694,1.9705,1.9704,1.9746,1.975,1.9709,1.971,1.971,0,1.9766,1.9772,1.9761,1.9761,1.9757,1.9758,1.9757,1.9742,1.9742,1.9735,1.9739,1.9738,1.9736,1.9737,1.9726,1.9724,1.9718,1.9733,1.9717,1.9721,1.9717,1.9716,1.9716,1.9736,1.9736,1.9737,1.9737,0,1.9803,1.9797,1.9796,1.9793,1.9792,1.9789,1.9785,1.9787,1.9771,1.9771,1.9771,1.9769,1.9766,1.9765,1.9761,1.9756,1.9744,1.9742,1.9744,1.9748,1.9751,1.9748,1.9704,1.9741,1.974,1.974,1.974,1.974,1.9831,1.9835,1.9827,1.9827,1.9822,1.9819,1.9821,1.9813,1.9812,1.9809,1.9801,1.9802,1.9795,1.9788,1.9784,1.9784,1.9777,1.978,1.9781,1.9782,1.9784,1.9752,1.9784,1.9783,1.9783,1.9783,1.9783,0,1.9866,1.986,1.986,1.9855,1.9854,1.9843,1.9838,1.9838,1.9839,1.9834,1.9833,1.9832,1.9831,1.9821,1.9818,1.982,1.9814,1.982,1.9819,1.9818,1.9791,1.9789,1.9824,1.9824,1.9824,1.9824,1.9824,1.9824,1.9884,1.9889,1.9882,1.9885,1.988,1.988,1.9878,1.9875,1.9871,1.9871,1.987,1.9863,1.9856,1.9852,1.985,1.9847,1.9847,1.9854,1.9849,1.9824,1.982,1.9816,1.9814,1.9854,1.9854,1.9876,1.9876,1.9876]}]]